FW9117 Weather Reports


Display with metric or nautical units.
time (UTC)temp
F
wind
direction
speed
MPH
gust
MPH
rain 1hr
in
rain 24hr
in
rain mn
in
humidity
%
barometer
mb
20260906200022 86 176 3.0 10.0 0.00 0.01 0.01 75 1013.9
20260906195017 85 184 3.0 8.0 0.00 0.01 0.01 75 1014.0
20260906194051 85 180 2.0 4.0 0.00 0.01 0.01 76 1014.0
20260906193025 86 192 1.0 6.0 0.00 0.01 0.01 76 1013.9
20260906192019 85 205 1.0 3.0 0.00 0.03 0.01 77 1014.1
20260906191053 86 203 1.0 8.0 0.00 0.04 0.01 76 1014.4
20260906190028 85 210 1.0 3.0 0.00 0.04 0.01 77 1014.6
20260906185024 84 214 1.0 2.0 0.00 0.05 0.01 78 1014.6
20260906184039 84 191 1.0 4.0 0.00 0.05 0.01 79 1014.5
20260906183033 83 193 3.0 7.0 0.00 0.05 0.01 80 1014.7
20260906182027 84 190 2.0 6.0 0.00 0.05 0.01 80 1014.9
20260906181022 83 197 2.0 7.0 0.00 0.05 0.01 80 1015.1
20260906180016 82 195 1.0 3.0 0.00 0.05 0.01 81 1015.2
20260906175031 81 197 2.0 7.0 0.00 0.05 0.01 83 1015.3
20260906174027 81 193 2.0 8.0 0.00 0.05 0.01 82 1015.8
20260906173043 80 190 2.0 6.0 0.00 0.05 0.01 84 1015.7
20260906172018 82 227 0.0 2.0 0.00 0.05 0.01 82 1015.9
20260906171034 82 293 0.0 1.0 0.00 0.05 0.01 81 1016.0
20260906170028 81 177 0.0 1.0 0.00 0.05 0.01 81 1016.2
20260906165023 81 174 1.0 6.0 0.00 0.05 0.01 82 1016.4
20260906164017 81 221 0.0 2.0 0.00 0.05 0.01 83 1016.4
20260906163032 78 205 0.0 3.0 0.00 0.05 0.01 85 1016.6
20260906162027 77 192 1.0 4.0 0.00 0.05 0.01 87 1016.7
20260906161022 76 216 1.0 4.0 0.00 0.05 0.01 89 1016.7
20260906160017 75 227 0.0 1.0 0.00 0.05 0.01 90 1016.5
20260906155032 75 218 0.0 1.0 0.00 0.05 0.01 91 1016.6
20260906154027 74 201 2.0 7.0 0.00 0.05 0.01 91 1016.5
20260906153022 74 202 2.0 6.0 0.00 0.05 0.01 92 1016.6
20260906152017 73 194 2.0 6.0 0.00 0.05 0.01 92 1016.6
20260906151052 74 205 1.0 3.0 0.00 0.05 0.01 92 1016.6
20260906150027 73 195 2.0 4.0 0.00 0.05 0.01 92 1016.6
20260906145022 73 198 3.0 6.0 0.00 0.05 0.01 92 1016.5
20260906144038 74 207 1.0 4.0 0.00 0.05 0.01 92 1016.7
20260906143033 74 195 2.0 7.0 0.00 0.05 0.01 91 1016.6
20260906142027 73 197 1.0 3.0 0.00 0.05 0.01 95 1016.4
20260906141022 70 199 0.0 2.0 0.00 0.05 0.01 98 1016.5
20260906140017 70 0.0 0.0 0.00 0.05 0.01 99 1016.7
20260906135113 69 0.0 0.0 0.00 0.05 0.01 99 1016.9
20260906134028 69 209 1.0 4.0 0.00 0.05 0.01 99 1016.7
20260906133022 68 56 0.0 2.0 0.00 0.05 0.01 99 1016.7
20260906132017 68 202 1.0 4.0 0.00 0.05 0.01 99 1016.7
20260906131031 67 193 3.0 6.0 0.00 0.05 0.01 99 1016.7
20260906130025 67 206 2.0 4.0 0.00 0.05 0.01 99 1016.4
20260906125019 66 198 2.0 4.0 0.00 0.05 0.01 99 1016.6
20260906124034 66 189 2.0 4.0 0.00 0.05 0.01 99 1016.3
20260906123049 64 179 0.0 1.0 0.00 0.05 0.01 99 1016.3
20260906122022 64 0.0 0.0 0.00 0.05 0.01 99 1016.4
20260906121019 63 0.0 0.0 0.00 0.05 0.01 99 1016.3
20260906120034 63 0.0 0.0 0.00 0.05 0.01 99 1016.3
20260906115029 64 0.0 0.0 0.00 0.05 0.01 99 1016.2
20260906114024 64 0.0 0.0 0.00 0.05 0.01 99 1016.4
20260906113019 64 0.0 0.0 0.00 0.05 0.01 99 1016.4
20260906112034 64 0.0 0.0 0.00 0.05 0.01 99 1016.4
20260906111049 64 0.0 0.0 0.00 0.05 0.01 99 1016.3
20260906110024 64 0.0 0.0 0.00 0.05 0.01 99 1016.3
20260906105018 65 0.0 0.0 0.00 0.05 0.01 99 1016.2
20260906104053 65 0.0 0.0 0.00 0.05 0.01 99 1016.3
20260906103028 65 212 0.0 1.0 0.00 0.05 0.01 99 1016.2
20260906102122 65 0.0 0.0 0.00 0.05 0.01 99 1016.1
20260906101017 65 204 0.0 2.0 0.01 0.05 0.01 99 1016.1
20260906100033 65 209 0.0 2.0 0.01 0.05 0.01 99 1016.0
20260906095027 66 209 0.0 1.0 0.01 0.05 0.01 99 1015.7
20260906094023 66 206 0.0 1.0 0.01 0.05 0.01 99 1015.7
20260906093018 65 0.0 0.0 0.01 0.05 0.01 99 1015.8
20260906092033 66 232 0.0 1.0 0.01 0.05 0.01 99 1015.7
20260906091027 66 216 1.0 3.0 0.00 0.04 0.00 99 1015.4
20260906090021 66 193 0.0 3.0 0.00 0.04 0.00 99 1015.8
20260906085016 65 0.0 0.0 0.00 0.04 0.00 99 1015.6
20260906084030 65 0.0 0.0 0.00 0.04 0.00 99 1015.6
20260906083024 66 177 0.0 1.0 0.00 0.04 0.00 99 1015.7
20260906082039 66 303 0.0 2.0 0.00 0.04 0.00 99 1015.8
20260906081033 66 274 2.0 7.0 0.00 0.04 0.00 99 1016.0
20260906080027 66 178 0.0 4.0 0.00 0.04 0.00 99 1014.8
20260906075022 65 197 1.0 7.0 0.00 0.04 0.00 99 1015.0
20260906074037 65 179 2.0 6.0 0.00 0.04 0.00 99 1015.5
20260906073034 64 201 1.0 2.0 0.00 0.04 0.00 99 1016.2
20260906072027 64 196 1.0 2.0 0.00 0.04 0.00 99 1016.0
20260906071022 63 0.0 0.0 0.00 0.04 0.00 99 1016.3
20260906070016 64 0.0 0.0 0.00 0.04 0.00 99 1016.1
20260906065030 64 0.0 0.0 0.00 0.04 0.00 99 1016.2
20260906064046 63 0.0 0.0 0.00 0.04 0.00 99 1016.2
20260906063020 63 216 0.0 1.0 0.00 0.04 0.00 99 1016.4
20260906062034 62 0.0 0.0 0.00 0.04 0.00 99 1016.6
20260906061031 63 0.0 0.0 0.00 0.04 0.00 99 1016.5
20260906060025 62 0.0 0.0 0.00 0.04 0.00 99 1016.5
20260906055020 63 0.0 0.0 0.00 0.04 0.00 99 1016.5
20260906054035 63 0.0 0.0 0.00 0.04 0.00 99 1016.7
20260906053029 63 0.0 0.0 0.00 0.04 0.00 99 1016.6
20260906052104 63 0.0 0.0 0.00 0.04 0.00 99 1016.4
20260906051018 63 0.0 0.0 0.00 0.04 0.00 99 1016.4
20260906050112 64 0.0 0.0 0.00 0.04 0.04 99 1016.6
20260906045027 64 286 0.0 1.0 0.00 0.04 0.04 99 1016.5
20260906044021 63 0.0 0.0 0.00 0.04 0.04 99 1016.3
20260906043017 63 0.0 0.0 0.00 0.04 0.04 99 1016.3
20260906042032 64 0.0 0.0 0.00 0.04 0.04 99 1016.4
20260906041027 64 0.0 0.0 0.00 0.04 0.04 99 1016.6
20260906040021 65 0.0 0.0 0.00 0.04 0.04 99 1016.8
20260906035015 65 0.0 0.0 0.00 0.04 0.04 99 1016.9
20260906034030 66 0.0 0.0 0.00 0.04 0.04 99 1016.8
20260906033024 66 0.0 0.0 0.00 0.04 0.04 99 1016.9
20260906032019 66 0.0 0.0 0.00 0.04 0.04 98 1016.7
20260906031033 66 220 0.0 2.0 0.00 0.04 0.04 98 1016.7
20260906030029 66 0.0 0.0 0.00 0.04 0.04 98 1016.5
20260906025023 66 226 0.0 1.0 0.00 0.04 0.04 98 1016.3
20260906024017 66 222 0.0 1.0 0.00 0.04 0.04 98 1016.3
20260906023032 67 263 0.0 1.0 0.00 0.04 0.04 98 1016.2
20260906022027 67 189 0.0 3.0 0.00 0.04 0.04 98 1016.1
20260906021041 66 245 0.0 1.0 0.00 0.04 0.04 98 1016.1
20260906020017 67 0.0 0.0 0.00 0.04 0.04 97 1016.1
20260906015031 67 0.0 0.0 0.00 0.04 0.04 96 1016.0
20260906014045 67 0.0 0.0 0.00 0.04 0.04 96 1015.6
20260906013021 67 252 0.0 1.0 0.00 0.04 0.04 95 1015.5
20260906012035 68 206 1.0 2.0 0.00 0.04 0.04 95 1015.6
20260906011029 68 199 1.0 2.0 0.00 0.04 0.04 95 1015.6
20260906010024 68 203 0.0 1.0 0.00 0.04 0.04 94 1015.1
20260906005018 68 215 0.0 1.0 0.00 0.04 0.04 94 1014.8
20260906004034 69 0.0 0.0 0.00 0.04 0.04 92 1014.7
20260906003029 71 0.0 0.0 0.00 0.04 0.04 90 1014.4
20260906002023 72 212 0.0 1.0 0.00 0.04 0.04 88 1014.3
20260906001018 74 239 0.0 2.0 0.00 0.04 0.04 84 1014.2
20260906000032 77 278 0.0 1.0 0.00 0.04 0.04 79 1014.1
20260905235027 78 0.0 0.0 0.00 0.04 0.04 77 1014.1
20260905234021 77 231 0.0 3.0 0.00 0.04 0.04 79 1014.0
20260905233017 78 235 0.0 2.0 0.00 0.04 0.04 77 1014.0
20260905232031 79 236 0.0 1.0 0.00 0.04 0.04 77 1014.1
20260905231025 79 262 0.0 1.0 0.00 0.04 0.04 77 1013.9
20260905230039 80 218 1.0 4.0 0.00 0.04 0.04 77 1013.9
20260905225034 81 237 0.0 1.0 0.00 0.04 0.04 74 1013.8
20260905224029 81 229 0.0 2.0 0.00 0.04 0.04 75 1014.0
20260905223023 81 233 0.0 2.0 0.00 0.04 0.04 73 1013.7
20260905222039 82 226 0.0 1.0 0.00 0.04 0.04 73 1013.7
20260905221054 82 233 0.0 2.0 0.00 0.04 0.04 74 1013.8
20260905220028 79 220 0.0 1.0 0.00 0.04 0.04 77 1013.4
20260905215023 78 180 4.0 8.0 0.00 0.04 0.04 77 1013.0
20260905214018 78 183 5.0 8.0 0.00 0.04 0.04 75 1013.1
20260905213032 78 182 5.0 9.0 0.00 0.04 0.04 74 1013.3
20260905212026 79 184 4.0 8.0 0.00 0.04 0.04 73 1013.4
20260905211021 77 193 4.0 8.0 0.00 0.04 0.04 78 1013.6
20260905210015 77 193 4.0 9.0 0.00 0.04 0.04 80 1013.7
20260905205030 76 190 4.0 10.0 0.00 0.04 0.04 83 1013.6
20260905204025 76 189 4.0 10.0 0.00 0.04 0.04 82 1014.0
20260905203019 75 186 2.0 6.0 0.00 0.04 0.04 85 1014.0
20260905202015 74 194 4.0 10.0 0.02 0.04 0.04 88 1014.3
20260905201029 74 195 4.0 9.0 0.03 0.04 0.04 89 1014.9